• MPC Preparation (Info)

  • MPEC 2020-V61 : 2020 VM1

    The following Minor Planet Electronic Circular may be linked-to from your own Web pages, but must not otherwise be redistributed electronically.

    A form allowing access to any MPEC is at the bottom of this page.


    Read MPEC 2020-V60 Read MPEC 2020-V62


    M.P.E.C. 2020-V61                             Issued 2020 November 10, 13:35 UT
    
         The Minor Planet Electronic Circulars contain information on unusual
             minor planets and routine data on comets.  They are published
        on behalf of Division F of the International Astronomical Union by the
              Minor Planet Center, Smithsonian Astrophysical Observatory,
                              Cambridge, MA 02138, U.S.A.
    
                 Prepared using the Tamkin Foundation Computer Network
    
                                  MPC@CFA.HARVARD.EDU
                URL https://www.minorplanetcenter.net/    ISSN 1523-6714
    
                                    2020 VM1                                 
    
    
    Observations:
         K20V01M* C2020 11 08.22415221 18 25.480-00 16 15.37         19.65wUEV061F52
         K20V01M  C2020 11 08.23639821 18 26.908-00 13 23.64         19.68wUEV061F52
         K20V01M  C2020 11 08.24861821 18 28.329-00 10 32.12         19.74wUEV061F52
         K20V01M KC2020 11 08.41271521 18 49.29 +00 28 18.1          19.6 GVEV061474
         K20V01M KC2020 11 08.41453221 18 49.35 +00 28 42.6          19.4 GVEV061474
         K20V01M KC2020 11 08.41634821 18 49.75 +00 29 07.8          20.2 GVEV061474
         K20V01M KC2020 11 08.41771021 18 49.94 +00 29 27.1          19.6 GVEV061474
         K20V01M 1C2020 11 08.70277 21 19 28.28 +01 33 31.3          19.7 VVEV061033
         K20V01M 1C2020 11 08.70364 21 19 28.39 +01 33 43.3          20.1 VVEV061033
         K20V01M 1C2020 11 08.70451 21 19 28.49 +01 33 54.8          19.7 VVEV061033
         K20V01M 1C2020 11 08.70551 21 19 28.61 +01 34 08.8          20.2 VVEV061033
         K20V01M 1C2020 11 08.70655 21 19 28.71 +01 34 24.0                VEV061246
         K20V01M 1C2020 11 08.70708 21 19 28.71 +01 34 31.5                VEV061246
         K20V01M 1C2020 11 08.70738 21 19 28.80 +01 34 35.3          19.9 GVEV061246
         K20V01M 1C2020 11 08.70769 21 19 28.80 +01 34 39.7                VEV061246
         K20V01M 1C2020 11 08.70799 21 19 28.83 +01 34 43.9          20   GVEV061246
         K20V01M 1C2020 11 08.70829 21 19 28.89 +01 34 47.1                VEV061246
         K20V01M 1C2020 11 08.70859 21 19 28.93 +01 34 51.4                VEV061246
         K20V01M KC2020 11 08.71161421 19 29.28 +01 35 34.6          19.8 GVEV061L01
         K20V01M KC2020 11 08.71472921 19 29.65 +01 36 16.7          20.0 GVEV061L01
         K20V01M KC2020 11 08.71537721 19 29.73 +01 36 25.4          19.8 GVEV061L01
         K20V01M KC2020 11 08.71628521 19 29.83 +01 36 37.7          20.0 GVEV061L01
         K20V01M KC2020 11 08.76203621 19 35.60 +01 46 56.5          20.3 GVEV061I93
         K20V01M KC2020 11 08.76668421 19 36.07 +01 47 58.3          20.9 GVEV061I93
         K20V01M KC2020 11 08.77143521 19 36.67 +01 49 03.3          20.2 GVEV061I93
         K20V01M KC2020 11 08.83289 21 19 43.57 +02 02 48.2                VEV061204
         K20V01M KC2020 11 08.84143 21 19 44.59 +02 04 42.4          19.8 GVEV061204
         K20V01M KC2020 11 08.87076221 19 48.04 +02 11 16.1          19.9 GVEV061203
         K20V01M 2C2020 11 08.88438 21 19 49.75 +02 14 20.9          20.2 GVEV061Z84
         K20V01M KC2020 11 08.89015921 19 50.37 +02 15 35.5          19.8 GVEV061203
         K20V01M 2C2020 11 08.89357 21 19 50.79 +02 16 23.2          20.1 GVEV061Z84
         K20V01M 2C2020 11 08.90341 21 19 51.97 +02 18 35.4          20.9 GVEV061Z84
         K20V01M 2C2020 11 08.90640 21 19 52.32 +02 19 14.5          21.1 GVEV061Z84
         K20V01M KC2020 11 09.01404621 20 07.37 +02 43 03.3          20.2 VuEV061H21
         K20V01M KC2020 11 09.01753321 20 07.76 +02 43 49.3          20.1 VuEV061H21
         K20V01M KC2020 11 09.02053821 20 08.08 +02 44 28.9          20.2 VuEV061H21
         K20V01M |C2020 11 09.03777 21 20 09.35 +02 49 00.9          20.5 VuEV061807
         K20V01M |C2020 11 09.04221 21 20 09.85 +02 49 59.1          20.4 VuEV061807
         K20V01M |C2020 11 09.04665 21 20 10.36 +02 50 57.7          20.3 VuEV061807
         K20V01M 1C2020 11 09.71080 21 21 33.57 +05 12 12.9          20.0 VVEV061033
         K20V01M 1C2020 11 09.71213 21 21 33.72 +05 12 29.4          19.9 VVEV061033
         K20V01M 1C2020 11 09.71634 21 21 34.19 +05 13 22.2          19.8 VVEV061033
         K20V01M 1C2020 11 09.71773 21 21 34.34 +05 13 39.2          20.0 VVEV061033
         K20V01M KC2020 11 09.75255 21 21 38.07 +05 20 59.0          19.9 GVEV061L07
         K20V01M KC2020 11 09.77478 21 21 40.48 +05 25 35.5          20.6 GVEV061L07
         K20V01M KC2020 11 09.85038 21 21 49.04 +05 41 08.3          19.0 RVEV061K51
         K20V01M KC2020 11 09.85188 21 21 49.22 +05 41 26.7          19.2 RVEV061K51
         K20V01M KC2020 11 09.85337 21 21 49.39 +05 41 45.3          19.1 RVEV061K51
         K20V01M KC2020 11 10.03119421 22 11.55 +06 18 08.7          20.4 VuEV061H21
         K20V01M KC2020 11 10.03449521 22 11.89 +06 18 48.9          20.2 VuEV061H21
    
    Observer details:
    033 Karl Schwarzschild Observatory, Tautenburg.  Observers S. Melnikov, U.
        Laux, B. Stecklum.  Measurer B. Stecklum.  1.34-m f/3 Schmidt + CCD.
    203 GiaGa Observatory.  Observers S. Foglia, G. Galli.  Measurer G. Galli.
        0.36-m f/5.76 Schmidt-Cassegrain + CCD.
    204 Schiaparelli Observatory.  Observer L. Buzzi.  0.84-m f/3.5 reflector +
        CCD.
    246 Klet Observatory-KLENOT.  Observers M. Tichy, J. Ticha.  Measurer M.
        Tichy.  1.06-m f/2.7 reflector + 2048x2048 CCD.
    474 Mount John Observatory, Lake Tekapo.  Observers A. C. Gilmore, P. M.
        Kilmartin.  Measurer P. M. Kilmartin.  1.0-m f/7.7 reflector + CCD.
    807 Cerro Tololo Observatory, La Serena.  Observers T. Linder, R. Holmes.
        0.61-m f/6.5 astrograph + CCD.
    F52 Pan-STARRS 2, Haleakala.  Observers J. Bulger, T. Dukes, T. Lowe, A.
        Schultz, M. Willman.  Measurers K. Chambers, S. Chastel, T. de Boer, L.
        Denneau, J. Fairlamb, H. Flewelling, M. Huber, C.-C. Lin, E. Magnier, Y.
        Ramanjooloo, R. Wainscoat, R. Weryk.  1.8-m Ritchey-Chretien + CCD.
    H21 Astronomical Research Observatory, Westfield.  Observer R. Holmes.
        Measurers S. Foglia, L. Buzzi, T. Linder, R. Holmes.  0.76-m f/3.0
        astrograph + CCD.
    I93 St Pardon de Conques.  Observer F. Losse.  0.40-m f/3.7 reflector + CCD.
    K51 Osservatorio del Celado, Castello Tesino.  Observers G. Favero, R.
        Furgoni.  Measurer R. Furgoni.  0.80-m f/4 reflector + CCD.
    L01 Visnjan Observatory, Tican.  Observer K. Korlevic.  1.0-m f/2.9 reflector
        + CCD.
    L07 Osservatorio Salvatore di Giacomo, Agerola.  Observers E. Guido, A.
        Catapano.  0.5-m f/8 Ritchey-Chretien + CCD.
    Z84 Calar Alto-Schmidt.  Observer E. Schwab.  Measurers E. Schwab, D. Koschny,
        M. Micheli, R. Jehn.  0.8-m f/3 reflector + CCD.
    
    Orbital elements:
    2020 VM1                                            PHA, Earth MOID = 0.0229 AU
    Epoch 2020 Dec. 17.0 TT = JDT 2459200.5                 Veres
    M  16.42262              (2000.0)            P               Q
    n   0.24941852     Peri.  330.26664     +0.92260312     +0.10639393
    a   2.4994834      Node    31.36120     +0.28252350     +0.46809668
    e   0.6127731      Incl.   45.43566     -0.26264798     +0.87724901
    P   3.95           H   20.8           G   0.15           U   8
    Residuals in seconds of arc
    201108 F52  0.2-  0.0     201108 246  0.2+  0.3-    201109 H21  0.1+  0.1+
    201108 F52  0.1-  0.3-    201108 L01  0.1-  0.2+    201109 H21  0.2-  0.0
    201108 F52  0.1-  0.3-    201108 L01  0.0   0.1+    201109 807  0.1-  0.1+
    201108 474  0.2+  0.6+    201108 L01  0.1+  0.1+    201109 807  0.2-  0.3-
    201108 474 (2.3-  0.0 )   201108 L01  0.0   0.1+    201109 807  0.1-  0.2-
    201108 474  0.4+  0.0     201108 I93  0.2+  0.5+    201109 033  0.2-  0.1-
    201108 474  0.8+  0.5+    201108 I93  0.8-  0.3-    201109 033  0.2-  0.2-
    201108 033  0.3-  0.6-    201108 I93  0.0   0.6+    201109 033  0.1-  0.0
    201108 033  0.2-  0.4-    201108 204  0.1+  0.4+    201109 033  0.2-  0.4-
    201108 033  0.3-  0.7-    201108 204  0.3+  0.2+    201109 L07  0.3+  0.1+
    201108 033  0.2-  0.2-    201108 203  0.0   1.3+    201109 L07  0.0   0.3+
    201108 246  0.5+  0.1-    201108 Z84  0.2+  0.4-    201109 K51  0.1+  0.0
    201108 246  0.4-  0.2+    201108 203 (0.1+  1.7+)   201109 K51  0.3+  0.1-
    201108 246  0.4+  0.0     201108 Z84  0.3-  0.7-    201109 K51  0.3+  0.1+
    201108 246  0.1-  0.2+    201108 Z84  0.0   0.3+    201110 H21  0.1+  0.0
    201108 246  0.2-  0.3+    201108 Z84  0.1-  0.4-    201110 H21  0.1-  0.1+
    201108 246  0.2+  0.6-    201109 H21  0.1+  0.2+
    
    Ephemeris:
    2020 VM1                 a,e,i = 2.50, 0.61, 45                  q = 0.9679
    Date    TT    R. A. (2000) Decl.     Delta      r    Elong.  Phase     V
    2020 10 11    13 11 31.7 -80 58 19   0.4034  0.9680    74.0    82.4    21.6
    ...
    2020 10 26    20 22 42.0 -61 18 25   0.2205  0.9861    81.6    85.7    20.5
    ...
    2020 11 03    21 04 36.7 -24 11 52   0.1894  1.0124    90.8    78.4    20.0
    ...
    2020 11 09    21 20 05.7 +02 40 10   0.2231  1.0388    96.3    71.4    20.1
    2020 11 10    21 22 08.1 +06 12 00   0.2325  1.0437    96.8    70.4    20.2
    2020 11 11    21 24 04.6 +09 26 54   0.2426  1.0487    97.3    69.5    20.3
    ...
    2020 11 17    21 34 18.7 +24 00 54   0.3150  1.0815    98.6    64.7    20.8
    ...
    2020 11 25    21 46 15.7 +35 07 31   0.4269  1.1314    98.4    59.7    21.4
    ...
    2020 12 10    22 09 13.2 +45 40 06   0.6478  1.2391    96.6    52.1    22.2
    
    M. P. C. Staff               (C) Copyright 2020 MPC           M.P.E.C. 2020-V61
    


    Read MPEC 2020-V60 Read MPEC 2020-V62


    MPEC number:

    Enter an MPEC number in one of the following forms:

    • 1997-B01 (the full form)
    • J97B01 (the packed version of the full form)
    • B01 (the abbreviated form)